Wind_Speed
18 19 19 18 18 17 16 15 15 15 17 17 18 19 18 19 20 22 24 28 30 33 36 40 43 46 49 50 51 51 51 50 49 47 46 46 48 49 50 50 52 52 54 55
13 13 13 12 12 11 11 11 11 11 13 13 12 12 12 13 14 15 17 21 24 28 31 34 37 40 42 45 48 49 50 49 47 46 46 45 47 47 50 50 52 52 52 53
9 8 8 7 6 5 6 6 6 7 7 7 7 5 5 5 6 8 10 14 18 22 26 30 34 36 38 39 42 44 46 46 46 45 45 46 46 46 48 49 50 52 51 51
7 6 6 5 4 4 3 4 4 4 3 3 3 2 1 2 2 3 5 8 12 15 18 22 27 32 33 34 36 39 42 44 44 44 44 45 44 45 45 47 48 50 50 51
8 6 5 4 4 3 2 1 1 1 1 2 3 3 3 2 2 2 2 3 6 8 10 13 18 23 27 29 32 35 38 40 42 42 41 40 40 42 44 45 46 47 48 50
7 6 6 5 4 4 4 4 5 7 7 7 6 6 7 4 3 3 3 4 5 5 5 8 12 16 19 23 27 30 32 35 37 38 38 38 38 39 41 42 44 45 47 49
8 7 7 7 7 7 7 7 7 8 8 8 9 9 8 7 7 7 6 6 6 7 7 6 7 11 13 18 21 24 26 29 31 32 33 34 36 37 37 38 38 39 41 42
9 9 9 8 8 8 9 8 8 8 9 9 9 9 8 9 9 9 9 8 8 8 7 7 6 8 10 13 15 18 18 22 27 29 29 29 31 33 33 35 36 38 39 41
11 11 9 9 9 9 9 9 9 9 9 9 10 9 9 8 8 8 9 9 7 7 7 7 8 8 8 9 10 12 13 17 20 24 25 25 27 29 31 34 35 37 37 38
11 11 10 10 10 10 10 9 9 9 9 8 9 9 8 7 7 8 9 9 7 7 8 8 9 8 7 7 8 9 11 13 16 19 22 23 25 27 29 30 32 34 36 37
11 11 11 11 11 11 10 9 9 10 10 9 9 10 9 9 9 9 9 8 8 7 7 9 9 8 6 5 7 8 9 11 12 15 19 21 24 26 28 28 29 32 35 38
12 12 11 12 11 11 10 9 9 9 9 9 9 10 9 10 9 9 9 8 8 6 6 6 5 5 4 3 3 6 8 11 12 14 17 21 23 25 27 28 29 30 32 34
11 11 10 11 10 9 9 9 9 9 8 8 8 8 7 7 7 7 7 7 6 4 3 1 1 1 3 3 4 6 7 9 11 12 14 18 21 24 26 27 29 30 31 34
9 9 9 10 9 8 8 8 8 8 7 7 7 7 6 6 5 5 5 4 3 2 1 2 2 3 3 4 5 7 8 9 12 14 16 19 21 24 26 28 30 32 33 35
9 8 8 8 7 7 7 6 6 6 5 4 4 4 4 4 3 3 3 3 3 3 3 3 4 5 5 6 7 9 11 13 15 17 20 22 24 26 29 31 33 35 37 39
8 7 6 6 5 5 5 5 4 4 4 3 3 3 3 3 3 3 3 4 4 4 4 5 6 7 8 10 12 14 16 18 20 22 24 26 28 31 33 35 37 39 41 43
5 5 4 4 4 4 3 3 3 2 2 2 2 3 3 4 4 4 5 5 6 7 8 9 10 12 13 15 17 19 21 23 25 27 29 31 34 36 38 40 42 43 45 46
4 3 2 2 2 2 3 2 2 1 0 1 2 2 3 4 5 6 7 8 10 11 12 13 15 17 19 21 23 24 26 28 31 33 35 37 39 40 43 45 46 47 48 49
3 3 2 2 2 2 1 1 1 1 1 2 3 3 4 6 7 8 10 11 12 14 16 18 20 22 24 26 27 29 31 34 36 38 40 42 43 45 47 49 50 51 52 53
2 2 1 1 1 1 0 1 1 2 2 3 3 5 6 8 9 10 12 14 16 18 20 22 24 26 28 30 32 34 36 38 41 42 44 46 47 49 50 52 53 54 55 56
1 1 1 1 1 1 2 2 3 4 5 6 7 8 9 11 12 14 16 17 20 22 24 26 28 30 32 33 35 37 38 41 43 45 48 50 51 53 54 55 56 57 58 59
3 2 3 3 4 5 5 5 6 7 8 9 10 11 13 14 16 18 20 22 24 26 27 29 31 33 34 36 38 40 42 44 46 49 51 53 55 56 58 59 60 60 61 61
5 5 5 6 6 7 7 8 9 10 10 12 13 14 16 17 19 21 23 25 27 29 31 32 34 36 38 40 41 43 46 49 51 53 54 56 58 58 59 61 62 62 63 63
7 7 7 8 8 9 10 11 11 12 13 14 16 17 18 20 21 23 25 27 29 32 34 35 37 39 41 43 45 48 50 53 54 55 57 58 59 60 60 60 61 61 61 61
9 9 9 10 11 12 12 13 14 15 16 17 18 19 21 22 24 26 28 30 32 35 36 38 39 41 43 46 49 52 54 55 56 57 58 58 58 58 58 58 58 58 58 58
11 12 12 12 13 14 15 16 16 17 18 19 21 22 24 25 27 29 31 33 35 37 38 40 42 44 47 50 52 55 56 57 57 57 56 55 55 55 55 55 55 55 54 54
Wind_Direction
256 257 259 261 262 263 266 265 265 268 272 276 278 277 273 268 265 261 255 248 242 238 235 233 231 231 230 229 228 227 226 225 224 224 226 228 231 231 229 230 231 232 230 231
250 250 251 252 253 255 255 260 268 276 281 281 279 275 271 269 264 259 253 246 241 236 233 231 229 228 229 228 227 226 224 224 224 225 227 229 229 229 229 230 230 229 230 230
228 229 225 223 219 219 241 263 275 283 283 287 288 281 283 276 265 256 250 242 238 235 233 230 227 227 227 227 226 225 223 223 223 225 227 228 227 229 230 230 231 231 232 230
195 189 189 189 195 210 239 268 286 290 287 302 306 341 325 241 240 244 239 239 236 233 230 228 226 226 227 227 226 224 221 220 221 223 226 227 227 229 230 230 232 232 232 231
167 166 170 181 187 190 211 280 15 18 42 64 55 56 65 62 117 151 182 206 212 214 214 215 219 220 223 224 224 223 223 222 222 225 226 227 228 228 230 231 232 232 231 232
154 154 153 150 146 147 131 100 82 79 85 79 69 69 70 83 101 136 143 131 148 160 167 192 207 214 216 217 218 220 221 220 222 224 226 228 228 227 228 231 231 232 232 234
144 142 139 130 119 112 113 104 91 80 81 83 74 76 75 87 98 104 115 121 121 135 150 166 186 195 202 206 209 209 213 218 220 222 224 227 228 226 226 229 230 231 234 236
132 131 126 121 114 107 105 102 97 92 91 91 85 83 85 93 94 92 97 103 99 112 123 135 151 175 186 195 196 202 210 217 220 221 224 227 227 228 228 231 231 233 236 238
119 117 115 111 108 109 110 108 105 100 94 91 88 89 91 100 97 92 89 94 95 103 117 132 140 148 167 181 186 196 205 211 216 222 227 229 228 229 231 232 231 232 233 237
110 108 106 109 111 109 107 102 101 101 99 98 92 91 92 97 92 87 86 90 94 101 115 126 135 137 155 181 191 199 203 213 220 224 228 230 232 234 236 237 236 237 239 241
107 103 103 105 107 111 105 97 95 95 93 100 96 91 89 90 91 89 90 87 90 95 104 118 123 128 140 166 191 204 212 219 226 232 234 235 236 237 240 241 242 242 243 243
104 102 99 102 105 105 95 93 93 91 89 92 93 88 83 83 86 84 83 82 83 87 94 104 121 135 151 170 199 220 230 230 235 239 239 239 240 241 245 245 247 248 246 247
103 102 101 104 103 101 94 92 92 92 92 92 91 88 87 83 78 74 75 78 77 75 89 106 156 215 233 230 227 239 245 249 250 250 249 248 249 250 251 252 253 253 253 252
106 103 102 101 103 105 100 97 95 93 93 90 84 86 87 84 75 66 68 76 66 62 28 325 304 304 282 263 255 260 266 271 266 265 263 258 256 255 254 255 258 258 257 257
109 106 107 107 107 109 106 104 98 92 88 79 76 75 82 75 56 43 46 42 29 20 356 330 305 292 291 284 277 277 278 280 279 275 273 269 266 265 263 261 261 262 261 261
112 110 111 109 110 114 109 112 102 93 84 67 59 50 38 31 20 16 10 0 352 349 340 325 313 306 298 290 289 287 285 284 284 282 279 276 273 272 270 268 266 265 264 262
123 119 116 115 118 124 122 120 114 98 82 47 26 19 6 350 341 341 336 326 317 310 309 306 306 303 298 297 296 294 291 287 286 285 282 279 276 274 272 271 269 267 266 265
126 139 138 147 155 158 142 147 135 117 74 18 0 348 337 326 325 324 321 316 314 311 309 306 304 301 299 298 294 291 289 286 285 285 284 282 280 276 275 274 271 269 268 266
122 137 146 148 157 149 166 212 253 270 290 296 307 310 313 317 316 316 316 314 311 311 310 309 306 304 301 300 297 294 291 290 289 287 286 284 281 279 277 276 273 271 269 268
94 111 120 113 113 113 74 354 327 339 331 333 328 325 324 325 323 321 319 318 318 317 314 312 309 306 303 302 300 297 296 295 293 290 288 287 285 282 280 277 275 273 272 270
18 33 350 326 302 300 307 308 311 317 326 326 324 324 324 324 323 322 321 319 318 316 313 311 310 308 306 304 302 301 299 297 295 293 291 288 287 285 282 280 277 275 274 272
319 300 291 287 284 285 293 298 303 307 312 315 316 318 319 319 319 319 318 317 316 314 313 311 310 308 306 304 303 302 301 299 297 295 294 291 289 286 284 282 279 277 275 273
306 301 299 298 297 295 296 297 298 300 305 309 311 313 314 314 314 315 314 314 314 313 312 310 309 307 306 305 304 303 302 301 300 298 296 294 291 289 287 285 282 280 278 275
298 299 299 299 299 299 299 298 298 298 300 303 306 307 309 311 312 312 312 312 312 312 311 311 309 308 308 307 306 305 303 302 301 299 297 295 293 291 290 288 285 282 280 277
292 294 295 296 296 296 296 296 296 296 297 300 302 304 306 309 311 312 312 312 312 313 312 312 310 309 308 308 308 307 305 304 303 301 299 298 295 294 292 290 287 285 282 279
287 289 290 291 293 293 294 295 295 296 297 299 301 303 305 307 309 311 311 312 312 313 313 312 312 311 310 310 309 308 307 306 305 304 302 300 298 296 294 291 289 287 284 281
Height
5632 5634 5634 5635 5635 5636 5636 5635 5635 5634 5632 5631 5630 5628 5626 5624 5623 5624 5625 5627 5630 5634 5638 5642 5648 5653 5660 5667 5674 5680 5686 5693 5699 5705 5711 5716 5721 5727 5732 5737 5742 5748 5752 5757
5628 5629 5630 5630 5631 5632 5632 5632 5631 5631 5628 5627 5625 5623 5621 5620 5619 5619 5620 5622 5624 5627 5631 5635 5639 5645 5651 5658 5664 5670 5677 5683 5690 5696 5703 5708 5713 5718 5723 5728 5733 5739 5743 5748
5625 5627 5627 5628 5629 5629 5630 5629 5629 5628 5626 5624 5623 5622 5620 5618 5617 5617 5617 5617 5619 5622 5625 5628 5633 5638 5644 5650 5656 5661 5668 5675 5682 5688 5694 5699 5704 5709 5714 5720 5725 5730 5735 5739
5623 5625 5626 5627 5628 5628 5628 5628 5627 5625 5624 5623 5622 5620 5620 5618 5617 5616 5615 5615 5616 5618 5620 5623 5628 5632 5638 5643 5649 5654 5660 5667 5674 5680 5686 5691 5696 5701 5707 5712 5717 5722 5726 5730
5623 5625 5625 5626 5627 5627 5627 5626 5626 5624 5623 5622 5621 5620 5620 5618 5617 5616 5615 5615 5615 5616 5618 5621 5624 5628 5633 5638 5643 5648 5654 5661 5667 5673 5679 5684 5689 5695 5699 5704 5708 5713 5718 5722
5624 5625 5625 5626 5626 5626 5626 5627 5626 5625 5624 5624 5622 5621 5620 5618 5617 5617 5616 5616 5616 5617 5618 5620 5622 5625 5629 5634 5639 5644 5649 5655 5661 5667 5672 5677 5682 5687 5691 5696 5700 5705 5710 5714
5624 5625 5626 5626 5627 5627 5627 5628 5627 5626 5625 5625 5623 5622 5622 5619 5619 5618 5618 5618 5617 5618 5620 5621 5622 5625 5627 5631 5636 5641 5646 5651 5656 5661 5666 5671 5676 5680 5684 5688 5693 5697 5701 5705
5625 5627 5627 5628 5628 5628 5628 5629 5629 5628 5627 5626 5625 5624 5624 5622 5621 5621 5621 5620 5620 5620 5621 5622 5623 5625 5627 5631 5635 5639 5643 5648 5652 5657 5661 5665 5669 5673 5677 5682 5686 5690 5694 5697
5627 5629 5629 5629 5630 5630 5630 5630 5630 5630 5629 5628 5627 5627 5626 5625 5624 5624 5623 5623 5622 5622 5623 5623 5624 5626 5628 5631 5635 5638 5642 5646 5650 5654 5657 5660 5664 5668 5671 5675 5678 5682 5685 5689
5630 5631 5631 5632 5632 5632 5632 5632 5632 5632 5631 5630 5630 5628 5628 5627 5627 5626 5626 5625 5625 5624 5625 5625 5626 5628 5630 5632 5635 5638 5641 5644 5647 5650 5653 5656 5659 5662 5665 5668 5671 5674 5678 5681
5632 5633 5634 5634 5634 5634 5635 5634 5633 5633 5632 5632 5632 5633 5630 5629 5629 5628 5628 5627 5627 5627 5627 5627 5628 5629 5631 5633 5635 5637 5639 5642 5644 5647 5649 5651 5654 5657 5659 5662 5665 5667 5670 5673
5635 5636 5636 5636 5636 5636 5636 5636 5636 5636 5635 5634 5634 5637 5632 5632 5631 5630 5630 5629 5629 5629 5629 5629 5630 5630 5631 5632 5634 5636 5638 5640 5642 5644 5645 5647 5649 5651 5653 5655 5657 5659 5661 5663
5638 5639 5639 5639 5641 5640 5639 5638 5638 5638 5637 5637 5637 5639 5635 5634 5633 5633 5632 5631 5631 5630 5630 5630 5631 5631 5632 5632 5634 5635 5636 5637 5639 5639 5640 5641 5643 5644 5646 5648 5649 5651 5652 5653
5641 5641 5642 5643 5641 5641 5641 5640 5640 5640 5639 5639 5639 5638 5637 5636 5635 5635 5634 5633 5632 5632 5631 5631 5631 5631 5631 5631 5632 5633 5633 5634 5634 5635 5635 5636 5636 5637 5638 5639 5640 5641 5642 5643
5644 5644 5644 5644 5643 5643 5643 5643 5642 5642 5641 5641 5640 5639 5638 5637 5637 5636 5635 5634 5633 5632 5632 5631 5630 5630 5629 5629 5630 5630 5629 5630 5629 5629 5629 5629 5629 5629 5629 5629 5630 5631 5631 5632
5646 5646 5646 5646 5645 5645 5645 5644 5644 5643 5642 5642 5641 5640 5639 5638 5637 5636 5635 5634 5634 5633 5632 5631 5629 5628 5627 5627 5625 5625 5624 5623 5623 5622 5621 5620 5620 5619 5619 5618 5618 5618 5618 5618
5648 5647 5647 5647 5646 5646 5646 5645 5644 5643 5643 5642 5641 5641 5639 5638 5637 5636 5635 5634 5633 5632 5630 5629 5627 5626 5624 5622 5621 5619 5617 5615 5614 5613 5612 5610 5609 5607 5606 5605 5604 5604 5603 5603
5649 5648 5648 5647 5648 5647 5649 5645 5644 5644 5643 5642 5641 5640 5638 5637 5636 5635 5633 5632 5631 5629 5628 5626 5624 5622 5619 5617 5615 5612 5610 5607 5605 5603 5601 5599 5596 5594 5592 5590 5589 5587 5587 5586
5649 5649 5648 5648 5647 5647 5646 5645 5644 5643 5642 5641 5640 5639 5637 5636 5634 5633 5631 5629 5627 5625 5623 5621 5619 5616 5613 5609 5606 5604 5600 5597 5594 5591 5588 5584 5581 5579 5576 5574 5572 5570 5569 5568
5650 5649 5649 5648 5647 5646 5647 5644 5643 5643 5641 5640 5638 5637 5635 5633 5632 5631 5628 5625 5623 5620 5618 5615 5612 5608 5605 5601 5597 5594 5590 5586 5582 5577 5573 5569 5565 5561 5558 5555 5553 5551 5549 5548
5650 5649 5648 5647 5646 5645 5645 5643 5642 5642 5642 5638 5636 5635 5633 5631 5629 5627 5624 5621 5618 5615 5612 5608 5604 5600 5596 5592 5587 5583 5578 5574 5569 5564 5558 5553 5548 5544 5540 5536 5533 5531 5529 5528
5650 5649 5647 5646 5645 5647 5643 5641 5641 5640 5637 5635 5633 5632 5629 5627 5625 5622 5619 5616 5613 5609 5605 5601 5596 5591 5586 5581 5576 5571 5566 5560 5554 5548 5542 5536 5530 5525 5520 5516 5513 5510 5507 5505
5649 5648 5646 5646 5646 5643 5640 5639 5638 5636 5634 5632 5630 5628 5625 5623 5620 5617 5613 5610 5606 5602 5597 5592 5587 5582 5576 5570 5565 5558 5552 5545 5538 5531 5524 5517 5510 5504 5499 5494 5490 5487 5484 5482
5647 5646 5644 5643 5641 5640 5638 5636 5634 5632 5630 5628 5626 5623 5621 5618 5615 5611 5607 5603 5598 5593 5588 5583 5577 5571 5565 5558 5551 5544 5536 5529 5521 5513 5505 5497 5490 5484 5478 5472 5467 5464 5461 5458
5645 5643 5642 5640 5639 5637 5635 5633 5631 5628 5626 5624 5621 5618 5615 5612 5608 5604 5600 5595 5590 5585 5579 5573 5567 5560 5553 5546 5537 5529 5520 5511 5503 5494 5485 5477 5469 5463 5457 5451 5446 5441 5439 5435
5641 5640 5638 5637 5635 5633 5631 5629 5626 5624 5622 5619 5616 5613 5610 5606 5602 5597 5592 5587 5582 5576 5569 5562 5555 5548 5540 5531 5522 5513 5503 5494 5484 5475 5467 5459 5451 5444 5438 5432 5427 5422 5418 5415